• In Belarus
  • List of Countries
  • For 7 days
  • Water Temperature
  • Weather Map
  • Weather Widgets
  • user-avatar
    Login

    Hourly Weather Sofia

    Today, 25 August, Sunday

    Time Temperature Precipitation Wind Pressure Humidity
    00:00 +22°C° 0.1 mm 1 mps 714 mmHg 68%
    01:00 +21°C° 0.1 mm 1 mps 714 mmHg 69%
    02:00 +21°C° 0 mm 1 mps 714 mmHg 68%
    03:00 +20°C° 0 mm 1 mps 714 mmHg 70%
    04:00 +20°C° 0 mm 1 mps 714 mmHg 73%
    05:00 +20°C° 0 mm 1 mps 714 mmHg 76%
    06:00 +21°C° 0 mm 1 mps 714 mmHg 70%
    07:00 +23°C° 0 mm 1 mps 714 mmHg 64%
    08:00 +25°C° 0 mm 1 mps 715 mmHg 58%
    09:00 +27°C° 0 mm 2 mps 715 mmHg 52%
    10:00 +29°C° 0 mm 3 mps 715 mmHg 45%
    11:00 +31°C° 0 mm 3 mps 715 mmHg 38%
    12:00 +33°C° 0 mm 4 mps 714 mmHg 36%
    13:00 +34°C° 0 mm 4 mps 714 mmHg 34%
    14:00 +34°C° 0 mm 4 mps 714 mmHg 32%
    15:00 +34°C° 0.1 mm 4 mps 714 mmHg 33%
    16:00 +33°C° 0.1 mm 4 mps 713 mmHg 34%
    17:00 +32°C° 0.1 mm 4 mps 712 mmHg 36%
    18:00 +29°C° 0.4 mm 3 mps 712 mmHg 45%
    19:00 +26°C° 0.4 mm 2 mps 712 mmHg 55%
    20:00 +21°C° 0.4 mm 0 mps 712 mmHg 65%
    21:00 +23°C° 0 mm 1 mps 713 mmHg 66%
    22:00 +22°C° 0 mm 1 mps 713 mmHg 67%
    23:00 +22°C° 0 mm 1 mps 713 mmHg 69%

    Tomorrow, 26 August, Monday

    Time Temperature Precipitation Wind Pressure Humidity
    00:00 +21°C° 0 mm 1 mps 713 mmHg 70%
    01:00 +21°C° 0 mm 1 mps 713 mmHg 71%
    02:00 +20°C° 0 mm 1 mps 713 mmHg 73%
    03:00 +20°C° 0 mm 1 mps 714 mmHg 75%
    04:00 +20°C° 0 mm 1 mps 714 mmHg 77%
    05:00 +19°C° 0 mm 1 mps 714 mmHg 78%
    06:00 +21°C° 0 mm 1 mps 714 mmHg 73%
    07:00 +23°C° 0 mm 1 mps 714 mmHg 67%
    08:00 +24°C° 0 mm 1 mps 715 mmHg 62%
    09:00 +27°C° 0 mm 2 mps 715 mmHg 52%
    10:00 +29°C° 0 mm 2 mps 715 mmHg 42%
    11:00 +33°C° 0 mm 3 mps 715 mmHg 32%
    12:00 +33°C° 0 mm 3 mps 715 mmHg 30%
    13:00 +34°C° 0 mm 3 mps 715 mmHg 28%
    14:00 +35°C° 0 mm 3 mps 715 mmHg 26%
    15:00 +34°C° 0 mm 3 mps 714 mmHg 28%
    16:00 +33°C° 0 mm 3 mps 714 mmHg 30%
    17:00 +33°C° 0 mm 3 mps 714 mmHg 32%
    18:00 +29°C° 0 mm 2 mps 714 mmHg 39%
    19:00 +27°C° 0 mm 1 mps 714 mmHg 47%
    20:00 +22°C° 0 mm 0 mps 714 mmHg 55%
    21:00 +24°C° 0 mm 1 mps 714 mmHg 56%
    22:00 +23°C° 0 mm 1 mps 714 mmHg 58%
    23:00 +22°C° 0 mm 1 mps 714 mmHg 60%

    Day after tomorrow, 27 August, Tuesday

    Time Temperature Precipitation Wind Pressure Humidity
    00:00 +22°C° 0 mm 1 mps 714 mmHg 61%
    01:00 +21°C° 0 mm 1 mps 714 mmHg 62%
    02:00 +20°C° 0 mm 1 mps 714 mmHg 63%
    03:00 +20°C° 0 mm 1 mps 714 mmHg 64%
    04:00 +20°C° 0 mm 1 mps 714 mmHg 65%
    05:00 +20°C° 0 mm 1 mps 714 mmHg 66%
    06:00 +21°C° 0 mm 1 mps 714 mmHg 60%
    07:00 +21°C° 0 mm 0 mps 714 mmHg 54%
    08:00 +23°C° 0 mm 0 mps 715 mmHg 48%
    09:00 +27°C° 0 mm 1 mps 715 mmHg 41%
    10:00 +29°C° 0 mm 2 mps 715 mmHg 35%
    11:00 +31°C° 0 mm 3 mps 715 mmHg 28%
    12:00 +33°C° 0 mm 4 mps 715 mmHg 27%
    13:00 +33°C° 0 mm 4 mps 715 mmHg 26%
    14:00 +34°C° 0 mm 5 mps 714 mmHg 25%
    15:00 +33°C° 0 mm 5 mps 714 mmHg 26%
    16:00 +33°C° 0 mm 4 mps 714 mmHg 27%
    17:00 +32°C° 0 mm 4 mps 713 mmHg 28%
    18:00 +29°C° 0 mm 3 mps 713 mmHg 32%
    19:00 +27°C° 0 mm 3 mps 713 mmHg 37%
    20:00 +24°C° 0 mm 2 mps 713 mmHg 41%
    21:00 +24°C° 0 mm 2 mps 713 mmHg 43%
    22:00 +23°C° 0 mm 2 mps 714 mmHg 45%
    23:00 +23°C° 0 mm 2 mps 714 mmHg 47%

    28 August, Wednesday

    Time Temperature Precipitation Wind Pressure Humidity
    00:00 +20°C° 0 mm 2 mps 714 mmHg 53%
    01:00 +19°C° 0 mm 2 mps 714 mmHg 58%
    02:00 +19°C° 0 mm 1 mps 714 mmHg 64%
    03:00 +19°C° 0 mm 1 mps 714 mmHg 66%
    04:00 +19°C° 0 mm 1 mps 713 mmHg 67%
    05:00 +18°C° 0 mm 1 mps 713 mmHg 69%
    06:00 +20°C° 0 mm 1 mps 714 mmHg 62%
    07:00 +22°C° 0 mm 1 mps 714 mmHg 55%
    08:00 +24°C° 0 mm 1 mps 714 mmHg 48%
    09:00 +26°C° 0 mm 2 mps 714 mmHg 41%
    10:00 +28°C° 0 mm 3 mps 715 mmHg 35%
    11:00 +30°C° 0 mm 4 mps 715 mmHg 28%
    12:00 +30°C° 0 mm 4 mps 714 mmHg 26%
    13:00 +32°C° 0 mm 5 mps 714 mmHg 24%
    14:00 +32°C° 0 mm 5 mps 714 mmHg 22%
    15:00 +32°C° 0 mm 5 mps 713 mmHg 22%
    16:00 +32°C° 0 mm 4 mps 713 mmHg 22%
    17:00 +30°C° 0 mm 4 mps 712 mmHg 23%
    18:00 +28°C° 0 mm 3 mps 712 mmHg 27%
    19:00 +25°C° 0 mm 3 mps 712 mmHg 31%
    20:00 +23°C° 0 mm 2 mps 712 mmHg 35%
    21:00 +21°C° 0 mm 2 mps 712 mmHg 37%
    22:00 +20°C° 0 mm 2 mps 712 mmHg 39%
    23:00 +21°C° 0 mm 1 mps 713 mmHg 41%

    29 August, Thursday

    Time Temperature Precipitation Wind Pressure Humidity
    00:00 +20°C° 0 mm 1 mps 712 mmHg 46%
    01:00 +19°C° 0 mm 1 mps 712 mmHg 51%
    02:00 +18°C° 0 mm 1 mps 712 mmHg 56%
    03:00 +16°C° 0 mm 1 mps 712 mmHg 58%
    04:00 +16°C° 0 mm 1 mps 712 mmHg 59%
    05:00 +15°C° 0 mm 0 mps 712 mmHg 61%
    06:00 +17°C° 0 mm 0 mps 712 mmHg 55%
    07:00 +21°C° 0 mm 1 mps 713 mmHg 49%
    08:00 +23°C° 0 mm 1 mps 713 mmHg 42%
    09:00 +25°C° 0 mm 2 mps 713 mmHg 36%
    10:00 +27°C° 0 mm 3 mps 713 mmHg 31%
    11:00 +29°C° 0 mm 4 mps 713 mmHg 25%
    12:00 +30°C° 0 mm 4 mps 713 mmHg 23%
    13:00 +30°C° 0 mm 4 mps 713 mmHg 21%
    14:00 +32°C° 0 mm 5 mps 712 mmHg 20%
    15:00 +32°C° 0 mm 4 mps 712 mmHg 20%
    16:00 +30°C° 0 mm 4 mps 712 mmHg 20%
    17:00 +30°C° 0 mm 4 mps 711 mmHg 20%
    18:00 +27°C° 0 mm 3 mps 711 mmHg 25%
    19:00 +24°C° 0 mm 2 mps 711 mmHg 29%
    20:00 +20°C° 0 mm 2 mps 711 mmHg 34%
    21:00 +21°C° 0 mm 1 mps 711 mmHg 35%
    22:00 +20°C° 0 mm 1 mps 711 mmHg 35%
    23:00 +19°C° 0 mm 1 mps 711 mmHg 36%

    30 August, Friday

    Time Temperature Precipitation Wind Pressure Humidity
    00:00 +19°C° 0 mm 1 mps 711 mmHg 42%
    01:00 +18°C° 0 mm 1 mps 711 mmHg 48%
    02:00 +18°C° 0 mm 1 mps 711 mmHg 54%
    03:00 +16°C° 0 mm 1 mps 711 mmHg 59%
    04:00 +15°C° 0 mm 0 mps 712 mmHg 63%
    05:00 +14°C° 0 mm 0 mps 712 mmHg 68%
    06:00 +17°C° 0 mm 0 mps 712 mmHg 61%
    07:00 +19°C° 0 mm 0 mps 713 mmHg 54%
    08:00 +21°C° 0 mm 0 mps 713 mmHg 47%
    09:00 +25°C° 0 mm 1 mps 713 mmHg 41%
    10:00 +27°C° 0 mm 1 mps 714 mmHg 35%
    11:00 +29°C° 0 mm 2 mps 714 mmHg 29%
    12:00 +30°C° 0 mm 3 mps 714 mmHg 28%
    13:00 +30°C° 0 mm 4 mps 713 mmHg 27%
    14:00 +32°C° 0 mm 4 mps 713 mmHg 26%
    15:00 +30°C° 0 mm 4 mps 713 mmHg 27%
    16:00 +30°C° 0 mm 4 mps 712 mmHg 28%
    17:00 +29°C° 0 mm 4 mps 712 mmHg 29%
    18:00 +27°C° 0 mm 3 mps 712 mmHg 35%
    19:00 +25°C° 0 mm 2 mps 712 mmHg 41%
    20:00 +21°C° 0 mm 2 mps 712 mmHg 47%
    21:00 +22°C° 0 mm 1 mps 712 mmHg 50%
    22:00 +21°C° 0 mm 1 mps 713 mmHg 52%
    23:00 +20°C° 0 mm 1 mps 713 mmHg 55%
    Show more